Estación de Tranque Lautaro
Ultimos registro cada 15 minutos 32
| N° | Estación | Fecha / Hora | Temperatura | Humedad | Lluvia | Velocidad | Dirección | Radiación | Presion |
| 32 | Tranque Lautaro | 03-09-2026 07:45 | 12 | 49,4 | 0 | 0 | 28 | 21,9 | 890,7 |
| 31 | Tranque Lautaro | 03-09-2026 07:30 | 11,7 | 50,6 | 0 | 0 | 28 | 16,9 | 890,6 |
| 30 | Tranque Lautaro | 03-09-2026 07:15 | 12,1 | 49 | 0 | 0 | 66 | 13,1 | 890,4 |
| 29 | Tranque Lautaro | 03-09-2026 07:00 | 11,8 | 50,4 | 0 | 0 | 121 | 4,4 | 890,3 |
| 28 | Tranque Lautaro | 03-09-2026 06:45 | 11,8 | 50,4 | 0 | 0 | 122 | 0,6 | 890,4 |
| 27 | Tranque Lautaro | 03-09-2026 06:30 | 12,1 | 51 | 0 | 0 | 122 | 0,6 | 890,2 |
| 26 | Tranque Lautaro | 03-09-2026 06:15 | 13,4 | 49,2 | 0 | 0 | 122 | 0,6 | 890 |
| 25 | Tranque Lautaro | 03-09-2026 06:00 | 13,4 | 51,7 | 0 | 0 | 160 | 0,6 | 889,9 |
| 24 | Tranque Lautaro | 03-09-2026 05:45 | 13 | 55,4 | 0 | 0 | 188 | 0,6 | 889,8 |
| 23 | Tranque Lautaro | 03-09-2026 05:30 | 12,9 | 56,3 | 0 | 0 | 188 | 0,6 | 889,9 |
| 22 | Tranque Lautaro | 03-09-2026 05:15 | 14,1 | 53,1 | 0 | 0 | 185 | 0,6 | 889,7 |
| 21 | Tranque Lautaro | 03-09-2026 05:00 | 14 | 54,6 | 0 | 0 | 184 | 0,6 | 889,6 |
| 20 | Tranque Lautaro | 03-09-2026 04:45 | 13,6 | 59,4 | 0 | 0 | 187 | 0,6 | 889,6 |
| 19 | Tranque Lautaro | 03-09-2026 04:30 | 14,5 | 59,1 | 0 | 0 | 191 | 0,6 | 889,6 |
| 18 | Tranque Lautaro | 03-09-2026 04:15 | 14,1 | 54,9 | 0 | 0 | 194 | 0,6 | 889,6 |
| 17 | Tranque Lautaro | 03-09-2026 04:00 | 13,7 | 59 | 0 | 0 | 194 | 0,6 | 889,8 |
| 16 | Tranque Lautaro | 03-09-2026 03:45 | 13,3 | 62,3 | 0 | 0 | 194 | 0,6 | 889,8 |
| 15 | Tranque Lautaro | 03-09-2026 03:30 | 13,6 | 63,5 | 0 | 0 | 194 | 0,6 | 889,7 |
| 14 | Tranque Lautaro | 03-09-2026 03:15 | 14,2 | 62,4 | 0 | 0 | 194 | 0,6 | 889,9 |
| 13 | Tranque Lautaro | 03-09-2026 03:00 | 14,5 | 66 | 0 | 0 | 194 | 0,6 | 889,8 |
| 12 | Tranque Lautaro | 03-09-2026 02:45 | 14,1 | 58,9 | 0 | 0 | 194 | 0,6 | 889,8 |
| 11 | Tranque Lautaro | 03-09-2026 02:30 | 14,4 | 58,9 | 0 | 0 | 194 | 0,6 | 890 |
| 10 | Tranque Lautaro | 03-09-2026 02:15 | 14,5 | 57,3 | 0 | 0 | 219 | 0,6 | 889,9 |
| 9 | Tranque Lautaro | 03-09-2026 02:00 | 14,3 | 58,3 | 0 | 0 | 219 | 0,6 | 890,2 |
| 8 | Tranque Lautaro | 03-09-2026 01:45 | 14,9 | 65,2 | 0 | 0 | 220 | 0,6 | 890,3 |
| 7 | Tranque Lautaro | 03-09-2026 01:30 | 15,2 | 55,6 | 0 | 0 | 220 | 0,6 | 890,6 |
| 6 | Tranque Lautaro | 03-09-2026 01:15 | 14,7 | 49,3 | 0 | 0 | 220 | 0,6 | 890,7 |
| 5 | Tranque Lautaro | 03-09-2026 01:00 | 14,9 | 52,1 | 0 | 0 | 220 | 0,6 | 890,5 |
| 4 | Tranque Lautaro | 03-09-2026 00:45 | 15,6 | 60,5 | 0 | 0 | 236 | 0,6 | 890,5 |
| 3 | Tranque Lautaro | 03-09-2026 00:30 | 14,9 | 46,3 | 0 | 0 | 239 | 0,6 | 890,6 |
| 2 | Tranque Lautaro | 03-09-2026 00:15 | 15 | 47,7 | 0 | 0 | 239 | 0,6 | 890,6 |
| 1 | Tranque Lautaro | 03-09-2026 00:00 | 15,4 | 44,2 | 0 | 0 | 240 | 0,6 | 890,4 |